Regional Weather Roundup
Issued by NWS

Home | Current Version | Previous Version | Text Only | Print | Product List | Glossary On
Versions: 1 2 3 4 5 6 7 8 9 10 11 12 13 14 15 16 17 18 19 20 21 22 23 24 25 26 27 28 29 30 31 32 33 34 35 36 37 38 39 40 41 42 43 44 45 46 47 48 49 50
000
ASUS43 KLOT 262104
RWRIL

ILLINOIS REGIONAL WEATHER ROUNDUP
NATIONAL WEATHER SERVICE CHICAGO/ROMEOVILLE IL
400 PM CDT MON JUN 26 2017

NOTE: "FAIR" INDICATES FEW OR NO CLOUDS BELOW 12,000 FEET WITH NO
SIGNIFICANT WEATHER AND/OR OBSTRUCTIONS TO VISIBILITY.

* THESE STATIONS ARE NOT UNDER NWS QUALITY CONTROL. THEY ALSO MAY NOT
  REPORT WEATHER SUCH AS PRECIPITATION OR FOG.

ILZ001-002-007-009-015-016-024-262200-
NORTHWEST ILLINOIS

CITY           SKY/WX    TMP DP  RH WIND       PRES   REMARKS
MOLINE         MOSUNNY   73  51  46 NW14G20   30.07F
STERLING*      MOSUNNY   73  47  39 N15       30.07F
SAVANNA*       MOSUNNY   72  45  37 NW16      30.08S
$$

ILZ003-004-008-010-011-017-018-262200-
NORTH CENTRAL ILLINOIS

CITY           SKY/WX    TMP DP  RH WIND       PRES   REMARKS
ROCKFORD       MOSUNNY   71  43  36 NW22G30   30.07F
FREEPORT*      MOSUNNY   69  42  38 NW21G28   30.09F
ROCHELLE*      PTSUNNY   69  45  40 NW21      30.06F
DE KALB*       MOSUNNY   71  44  37 NW18G30   30.06F
PERU*          MOSUNNY   71  47  42 NW17G23   30.07F
$$

ILZ005-006-012>014-019>023-262200-
NORTHEAST ILLINOIS

CITY           SKY/WX    TMP DP  RH WIND       PRES   REMARKS
CHICAGO-OHARE  PTSUNNY   73  41  31 NW20G26   30.03F
CHICAGO-MIDWAY PTSUNNY   73  40  30 W18G32    30.03F
AURORA         MOSUNNY   73  42  32 NW23G31   30.04F
LANSING*       MOSUNNY   72  41  33 NW14G21   30.03F
JOLIET*        PTSUNNY   73  42  32 NW14G21   30.04F
WAUKEGAN       PTSUNNY   66  43  43 NW8G25    30.03S
DUPAGE AIRPORT PTSUNNY   70  44  39 NW17G29   30.04F
WHEELING       MOSUNNY   71  43  36 NW16      30.04F
MORRIS*        PTSUNNY   69  48  46 W17       30.04F
ROMEOVILLE*    MOSUNNY   74  38  27 NW16G29   30.04F
NORTHERLY ISL    N/A     70  35  27 NW21        N/A
$$

LMZ740>746-262200-
SOUTHERN LAKE MICHIGAN

STATION/POSITION SKY/WX   TEMP    WIND        PRES    VSBY  WAVE
                          AIR SEA DIR/SP/G                  HT/PER
                          (F)     (DEG/KT/KT) (MB)    (MI)  (FT/S)
SOUTHERN BUOY              61 62  350/ 10/ 12 1017.3          1/ 4
WILMETTE HARBOR            66 63  300/ 14/ 19   N/A           2/ 3
HARRISON CRIB              69     320/ 21/ 24   N/A
BURNHAM HARBOR             71                   N/A
CALUMET HARBOR             71     290/ 12/ 20 1016.4F
BURNS HARBOR               65      30/ 10/ 12 1017.6F
MICHIGAN CITY              66     350/  9/ 10   N/A
MICHIGAN CITY 6N           65 67  360/  8/ 10   N/A           2/ 4
ST. JOSEPH                 65 69  330/ 10/ 14 1017.0F         2/ 4
$$

ILZ025>027-034>036-040-047-049-050-058-095>099-262200-
WEST-CENTRAL ILLINOIS

CITY           SKY/WX    TMP DP  RH WIND       PRES   REMARKS
QUINCY         MOSUNNY   72  52  49 SW9       30.13F
GALESBURG*     CLOUDY    62  52  70 N6        30.12S
MACOMB*        MOSUNNY   71  51  49 W17G23    30.12F
JACKSONVILLE*  CLOUDY    70  47  42 SW9       30.13F
PITTSFIELD*    CLOUDY    70  51  51 SW8       30.16S
$$

ILZ028>032-037-038-041>044-048-051>054-059>061-262200-
CENTRAL ILLINOIS

CITY           SKY/WX    TMP DP  RH WIND       PRES   REMARKS
PONTIAC        CLOUDY    65  51  59 N9        30.09S
BLOOMINGTON    TSTM      69  50  50 W28G40    30.12S
DECATUR        CLOUDY    70  51  51 W10       30.13F
PEORIA         CLOUDY    61  52  72 N7        30.11S
LACON*         CLOUDY    66  50  54 W8G17     30.08F
LINCOLN*       CLOUDY    72  51  47 NW6       30.11F
SPRINGFIELD    MOSUNNY   73  52  47 W12       30.12F
TAYLORVILLE    CLOUDY    69  50  50 NW3       30.13F
$$

ILZ033-039-045-046-055>057-062-063-262200-
EAST-CENTRAL ILLINOIS

CITY           SKY/WX    TMP DP  RH WIND       PRES   REMARKS
CHAMPAIGN      PTSUNNY   70  50  49 W15G26    30.11F
RANTOUL*       MOSUNNY   74  50  43 W20G29    30.09F
MATTOON        CLOUDY    66  53  63 W13       30.14F
PARIS*         CLOUDY    67  51  56 W12       30.13F
$$

ILZ079-100>102-262200-
SOUTHWEST ILLINOIS

CITY           SKY/WX    TMP DP  RH WIND       PRES   REMARKS
ALTON          CLOUDY    68  55  64 N6        30.15F
BELLEVILLE     CLOUDY    72  54  53 E7        30.13F
CAHOKIA*       CLOUDY    74  48  39 W9        30.13F
SPARTA*        MOSUNNY   78  46  32 N8        30.14F
$$

ILZ064>066-069>071-074>076-080>082-084>086-088>090-092>094-262200-
SOUTH-CENTRAL ILLINOIS

CITY           SKY/WX    TMP DP  RH WIND       PRES   REMARKS
CARBONDALE     SUNNY     80  53  39 VRB5      30.13F HX  80
CAIRO*         PTSUNNY   77  52  41 W5        30.13F
EFFINGHAM*     CLOUDY    70  48  45 NW7G18    30.16F
MARION         MOSUNNY   81  50  34 N6        30.14F HX  80
MT. VERNON     CLOUDY    75  52  44 N5        30.14F
CENTRALIA*     CLOUDY    73  52  47 NE7G16    30.14F
SALEM*         MOSUNNY   71  49  44 N5        30.14F
METROPOLIS*    SUNNY     79  52  38 CALM      30.13F
$$

ILZ067-068-072-073-078-083-087-091-262200-
SOUTHEAST ILLINOIS

CITY           SKY/WX    TMP DP  RH WIND       PRES   REMARKS
LAWRENCEVILLE  CLOUDY    71  48  43 NW16      30.15F
FLORA*         CLOUDY    74  50  42 N13       30.15F
FAIRFIELD*     CLOUDY    74  49  41 N9        30.14S
HARRISBURG*    MOSUNNY   78  52  40 N8        30.13F
ROBINSON*      CLOUDY    68  48  48 NW13      30.17S
CARMI*         PTSUNNY   77  52  41 N8        30.13F
$$

ABBREVIATIONS USED IN REMARKS
   TC - TEMPERATURE IN CELSIUS
  WCI - WIND CHILL INDEX
   HX - HEAT INDEX
  VSB - VISIBILITY
$$





USA.gov is the U.S. government's official web portal to all federal, state and local government web resources and services.